Ankeny, IA

9:27 PM CST on November 16, 2019 (GMT -0600)
Ankeny Regional

Weather History for KIKV - September, 2019

Change the Weather History Date:

Friday, September 27, 2019

  Actual Average (WUND) Record (WUND)
Temperature  
Mean Temperature 65 °F -  
Max Temperature 71 °F - - (-1)
Min Temperature 59 °F - - (-1)
Growing Degree Days 15 (Base 50)    
Moisture  
Dew Point 60 °F    
Average Humidity 80    
Maximum Humidity 100    
Minimum Humidity 56    
Precipitation  
Precipitation 0.02 in - - ()
Sea Level Pressure  
Sea Level Pressure 29.70 in    
Wind  
Wind Speed 8 mph ()    
Max Wind Speed 16 mph    
Max Gust Speed 23 mph    
Visibility 9.7 miles    
Events Rain    
Averages and records for this station are not official NWS values.
T = Trace of Precipitation, MM = Missing Value Source: Averaged Metar Reports

Daily Weather History Graph

Daily Weather History Graph

Search for Another Location

Airport or City:

Astronomy

Sep. 27, 2019 Rise Set
Actual Time 7:06 AM CDT 7:03 PM CDT
Civil Twilight 6:39 AM CDT 7:30 PM CDT
Nautical Twilight 6:06 AM CDT 8:03 PM CDT
Astronomical Twilight 5:33 AM CDT 8:35 PM CDT
Moon 5:26 AM CDT (9/27) 6:55 PM CDT (9/27)
Length of Visible Light 12h 51m
Length of Day
11h 56m
Waning Crescent, 2% of the Moon is Illuminated
Sep 27
Waning Crescent
Sep 28
New
Oct 5
First Quarter
Oct 13
Full
Oct 21
Last Quarter

Hourly Weather History & Observations

Time (CDT) Temp. Dew Point Humidity Pressure Visibility Wind Dir Wind Speed Gust Speed Precip Events Conditions
12:15 AM 66.2 °F 50.0 °F 56% 29.75 in 10.0 mi South 8.1 mph 13.8 mph N/A   Overcast
12:35 AM 64.4 °F 51.8 °F 64% 29.74 in 9.0 mi South 9.2 mph - N/A   Overcast
12:55 AM 66.2 °F 51.8 °F 60% 29.73 in 10.0 mi South 13.8 mph - N/A   Overcast
1:15 AM 66.2 °F 51.8 °F 60% 29.72 in 10.0 mi South 10.4 mph 20.7 mph N/A   Overcast
1:35 AM 66.2 °F 51.8 °F 60% 29.71 in 10.0 mi South 12.7 mph 18.4 mph N/A   Overcast
1:55 AM 66.2 °F 53.6 °F 64% 29.70 in 10.0 mi South 9.2 mph 18.4 mph N/A   Overcast
2:15 AM 66.2 °F 53.6 °F 64% 29.71 in 10.0 mi South 9.2 mph 15.0 mph N/A   Overcast
2:35 AM 66.2 °F 53.6 °F 64% 29.70 in 10.0 mi South 11.5 mph - N/A   Overcast
2:55 AM 66.2 °F 53.6 °F 64% 29.69 in 10.0 mi South 11.5 mph 17.3 mph N/A   Overcast
3:15 AM 66.2 °F 53.6 °F 64% 29.68 in 10.0 mi South 11.5 mph 17.3 mph N/A   Mostly Cloudy
3:35 AM 66.2 °F 55.4 °F 68% 29.69 in 10.0 mi SSW 10.4 mph - N/A   Overcast
3:55 AM 66.2 °F 55.4 °F 68% 29.67 in 10.0 mi South 8.1 mph - N/A   Overcast
4:15 AM 66.2 °F 57.2 °F 73% 29.66 in 10.0 mi South 8.1 mph 13.8 mph N/A   Overcast
4:35 AM 66.2 °F 57.2 °F 73% 29.65 in 10.0 mi South 8.1 mph 15.0 mph N/A   Overcast
4:55 AM 66.2 °F 57.2 °F 73% 29.64 in 10.0 mi South 9.2 mph 16.1 mph N/A   Overcast
5:15 AM 66.2 °F 57.2 °F 73% 29.64 in 10.0 mi South 9.2 mph 15.0 mph N/A   Mostly Cloudy
5:55 AM 66.2 °F 59.0 °F 78% 29.63 in 10.0 mi South 9.2 mph - N/A   Overcast
6:15 AM 66.2 °F 59.0 °F 78% 29.63 in 10.0 mi SSW 10.4 mph - N/A   Overcast
6:35 AM 66.2 °F 59.0 °F 78% 29.64 in 10.0 mi SSW 8.1 mph - N/A   Overcast
6:55 AM 66.2 °F 59.0 °F 78% 29.64 in 10.0 mi SSW 9.2 mph - N/A   Overcast
7:15 AM 66.2 °F 60.8 °F 83% 29.64 in 10.0 mi South 8.1 mph - N/A   Overcast
7:35 AM 66.2 °F 60.8 °F 83% 29.64 in 10.0 mi South 8.1 mph 13.8 mph N/A   Overcast
7:55 AM 66.2 °F 60.8 °F 83% 29.64 in 10.0 mi South 8.1 mph - N/A   Overcast
8:15 AM 66.2 °F 60.8 °F 83% 29.64 in 10.0 mi South 9.2 mph 15.0 mph N/A   Overcast
8:35 AM 68.0 °F 62.6 °F 83% 29.64 in 10.0 mi SSW 8.1 mph - N/A   Overcast
8:55 AM 68.0 °F 62.6 °F 83% 29.63 in 10.0 mi SSW 11.5 mph - N/A   Overcast
9:15 AM 69.8 °F 64.4 °F 83% 29.63 in 10.0 mi SSW 6.9 mph 17.3 mph N/A   Overcast
9:35 AM 71.6 °F 64.4 °F 78% 29.63 in 10.0 mi SW 9.2 mph - N/A   Mostly Cloudy
9:55 AM 71.6 °F 64.4 °F 78% 29.62 in 10.0 mi SSW 11.5 mph - N/A   Mostly Cloudy
10:15 AM 71.6 °F 66.2 °F 83% 29.62 in 10.0 mi SSW 11.5 mph - N/A   Overcast
10:35 AM 71.6 °F 66.2 °F 83% 29.62 in 10.0 mi SSW 8.1 mph - N/A   Overcast
10:55 AM 71.6 °F 66.2 °F 83% 29.62 in 10.0 mi SSW 10.4 mph 17.3 mph N/A   Overcast
11:15 AM 71.6 °F 66.2 °F 83% 29.63 in 10.0 mi SW 6.9 mph - N/A   Overcast
11:35 AM 71.6 °F 66.2 °F 83% 29.63 in 10.0 mi SSW 5.8 mph - N/A   Overcast
11:55 AM 69.8 °F 66.2 °F 88% 29.64 in 10.0 mi SSW 6.9 mph - N/A   Overcast
12:35 PM 68.0 °F 68.0 °F 100% 29.64 in 2.0 mi West 3.5 mph - N/A   Partly Cloudy
12:55 PM 69.8 °F 68.0 °F 94% 29.64 in 4.0 mi Calm Calm - 0.01 in   Light Drizzle
1:15 PM 69.8 °F 68.0 °F 94% 29.65 in 10.0 mi WSW 5.8 mph - N/A   Mostly Cloudy
1:35 PM 69.8 °F 68.0 °F 94% 29.66 in 10.0 mi West 5.8 mph - N/A   Overcast
1:55 PM 69.8 °F 68.0 °F 94% 29.64 in 9.0 mi WNW 5.8 mph - N/A Rain Light Rain
2:15 PM 69.8 °F 68.0 °F 94% 29.65 in 10.0 mi NW 6.9 mph - N/A   Overcast
2:35 PM 69.8 °F 66.2 °F 88% 29.66 in 9.0 mi North 9.2 mph - N/A   Overcast
2:55 PM 69.8 °F 66.2 °F 88% 29.67 in 10.0 mi Calm Calm - N/A   Overcast
3:15 PM 69.8 °F 68.0 °F 94% 29.66 in 10.0 mi Calm Calm - N/A   Overcast
3:35 PM 71.6 °F 68.0 °F 88% 29.66 in 10.0 mi NNE 5.8 mph - N/A   Overcast
3:55 PM 71.6 °F 66.2 °F 83% 29.67 in 10.0 mi North 5.8 mph - N/A   Overcast
4:15 PM 71.6 °F 66.2 °F 83% 29.67 in 10.0 mi NNE 8.1 mph - N/A   Mostly Cloudy
4:35 PM 69.8 °F 66.2 °F 88% 29.70 in 10.0 mi North 10.4 mph - N/A   Overcast
4:55 PM 68.0 °F 64.4 °F 88% 29.71 in 10.0 mi North 16.1 mph - 0.01 in   Light Drizzle
5:15 PM 66.2 °F 64.4 °F 94% 29.71 in 8.0 mi NNE 11.5 mph 18.4 mph N/A   Light Drizzle
5:35 PM 66.2 °F 60.8 °F 83% 29.73 in 10.0 mi NNE 9.2 mph - N/A   Overcast
5:55 PM 66.2 °F 60.8 °F 83% 29.74 in 10.0 mi NNE 6.9 mph - N/A   Overcast
6:15 PM 66.2 °F 60.8 °F 83% 29.75 in 10.0 mi North 5.8 mph - N/A   Overcast
6:35 PM 64.4 °F 60.8 °F 88% 29.75 in 10.0 mi North 5.8 mph - N/A   Overcast
6:55 PM 66.2 °F 60.8 °F 83% 29.75 in 10.0 mi North 8.1 mph - N/A   Overcast
7:15 PM 66.2 °F 60.8 °F 83% 29.74 in 10.0 mi NNE 5.8 mph - N/A   Overcast
7:35 PM 64.4 °F 60.8 °F 88% 29.76 in - North 4.6 mph - N/A   Overcast
7:55 PM 66.2 °F 60.8 °F 83% 29.76 in 10.0 mi NNE 4.6 mph - N/A   Overcast
8:15 PM 64.4 °F 62.6 °F 94% 29.76 in 10.0 mi North 4.6 mph - N/A   Overcast
8:35 PM 64.4 °F 60.8 °F 88% 29.76 in 9.0 mi North 8.1 mph - N/A   Scattered Clouds
8:55 PM 64.4 °F 60.8 °F 88% 29.77 in 10.0 mi North 8.1 mph - N/A   Clear
9:15 PM 64.4 °F 57.2 °F 77% 29.78 in 10.0 mi North 11.5 mph 20.7 mph N/A   Clear
9:35 PM 64.4 °F 55.4 °F 73% 29.79 in 10.0 mi North 11.5 mph 19.6 mph N/A   Clear
9:55 PM 62.6 °F 53.6 °F 72% 29.80 in 10.0 mi North 16.1 mph 23.0 mph N/A   Clear
10:15 PM 62.6 °F 53.6 °F 72% 29.81 in 10.0 mi North 15.0 mph 23.0 mph N/A   Clear
10:35 PM 60.8 °F 53.6 °F 77% 29.83 in 10.0 mi North 13.8 mph 20.7 mph N/A   Clear
10:55 PM 59.0 °F 51.8 °F 77% 29.85 in 10.0 mi North 10.4 mph 18.4 mph N/A   Clear
11:15 PM 59.0 °F 51.8 °F 77% 29.88 in 10.0 mi North 12.7 mph - N/A   Clear
11:35 PM 59.0 °F 51.8 °F 77% 29.89 in 10.0 mi NNE 11.5 mph 19.6 mph N/A   Clear
11:55 PM 59.0 °F 51.8 °F 77% 29.91 in 10.0 mi NNE 8.1 mph 15.0 mph N/A   Mostly Cloudy